CES578 VMMC-ZSSS

Flight info

Callsign CES578
Flight time 1h 51m
Altitude 37000
Route NUDPI V601 DOTMI/K0865S1130 A470 LJG B221 SHZ G204 AND AND62A
Aircraft B738/M-SDE2E3FGHIRWXY/LB1

Departure

Time 2026-04-27 13:58
Airport Macau International Airport (VMMC)

Arrival

Time 2026-04-27 15:49
Airport Shanghai Hongqiao International Airport (ZSSS)
Time Latitude Longitude Altitude Speed Heading
2026-04-27 13:26 22.15850 113.57776 28 ft 0 kts 105°
2026-04-27 13:32 22.15852 113.57770 28 ft 2 kts 105°
2026-04-27 13:32 22.15857 113.57750 28 ft 3 kts 104°
2026-04-27 13:32 22.15861 113.57733 28 ft 3 kts 103°
2026-04-27 13:33 22.15863 113.57713 26 ft 3 kts 67°
2026-04-27 13:33 22.15852 113.57699 28 ft 3 kts 22°
2026-04-27 13:33 22.15837 113.57694 25 ft 1 kts 14°
2026-04-27 13:33 22.15833 113.57693 27 ft 2 kts 14°
2026-04-27 13:38 22.15842 113.57695 24 ft 3 kts 14°
2026-04-27 13:38 22.15877 113.57705 27 ft 8 kts 15°
2026-04-27 13:38 22.15946 113.57725 28 ft 12 kts 15°
2026-04-27 13:39 22.16030 113.57748 28 ft 12 kts 14°
2026-04-27 13:39 22.16098 113.57797 28 ft 12 kts 66°
2026-04-27 13:39 22.16128 113.57892 28 ft 14 kts 72°
2026-04-27 13:39 22.16160 113.57993 28 ft 14 kts 70°
2026-04-27 13:40 22.16191 113.58090 28 ft 13 kts 71°
2026-04-27 13:40 22.16220 113.58182 28 ft 13 kts 71°
2026-04-27 13:40 22.16249 113.58273 28 ft 13 kts 69°
2026-04-27 13:40 22.16278 113.58360 28 ft 12 kts 71°
2026-04-27 13:41 22.16305 113.58445 28 ft 12 kts 71°
2026-04-27 13:41 22.16320 113.58491 28 ft 0 kts 71°
2026-04-27 13:49 22.16320 113.58490 28 ft 0 kts 71°
2026-04-27 13:56 22.16320 113.58491 55 ft 1 kts 71°
2026-04-27 13:56 22.16328 113.58518 28 ft 8 kts 72°
2026-04-27 13:56 22.16349 113.58594 28 ft 12 kts 83°
2026-04-27 13:57 22.16296 113.58646 28 ft 11 kts 161°
2026-04-27 13:57 22.16211 113.58678 28 ft 26 kts 161°
2026-04-27 13:57 22.15736 113.58854 28 ft 114 kts 161°
2026-04-27 13:57 22.14788 113.59220 183 ft 167 kts 159°
2026-04-27 13:58 22.13579 113.59617 712 ft 197 kts 160°
2026-04-27 13:58 22.12172 113.60135 984 ft 229 kts 158°
2026-04-27 13:58 22.10586 113.60751 1232 ft 252 kts 158°
2026-04-27 13:58 22.08883 113.61408 1349 ft 266 kts 159°
2026-04-27 13:59 22.07117 113.62082 2004 ft 269 kts 159°
2026-04-27 13:59 22.05391 113.62735 3093 ft 261 kts 161°
2026-04-27 13:59 22.03697 113.63374 3774 ft 256 kts 161°
2026-04-27 13:59 22.02004 113.64011 4519 ft 259 kts 161°
2026-04-27 14:00 22.00285 113.64657 5255 ft 264 kts 161°
2026-04-27 14:00 21.98539 113.65312 5999 ft 267 kts 162°
2026-04-27 14:00 21.96779 113.65967 6723 ft 269 kts 162°
2026-04-27 14:00 21.95000 113.66610 7445 ft 271 kts 163°
2026-04-27 14:01 21.93210 113.67255 8165 ft 272 kts 164°
2026-04-27 14:01 21.91403 113.67903 8831 ft 278 kts 163°
2026-04-27 14:01 21.89542 113.68570 9419 ft 285 kts 164°
2026-04-27 14:01 21.87639 113.69254 9995 ft 291 kts 164°
2026-04-27 14:02 21.85715 113.69945 10536 ft 299 kts 164°
2026-04-27 14:02 21.83723 113.70688 11085 ft 308 kts 159°
2026-04-27 14:02 21.81996 113.72109 11618 ft 324 kts 129°
2026-04-27 14:02 21.81008 113.74317 12210 ft 336 kts 106°
2026-04-27 14:03 21.80796 113.76846 12806 ft 346 kts 88°
2026-04-27 14:03 21.81316 113.79396 13390 ft 354 kts 72°
2026-04-27 14:03 21.82210 113.81888 13967 ft 360 kts 68°
2026-04-27 14:03 21.83214 113.84390 14497 ft 367 kts 66°
2026-04-27 14:04 21.84257 113.86922 15028 ft 373 kts 66°
2026-04-27 14:04 21.85314 113.89500 15589 ft 379 kts 66°
2026-04-27 14:04 21.86374 113.92118 16146 ft 384 kts 66°
2026-04-27 14:04 21.87434 113.94773 16708 ft 388 kts 66°
2026-04-27 14:05 21.88496 113.97465 17284 ft 392 kts 67°
2026-04-27 14:05 21.89561 114.00182 17871 ft 396 kts 66°
2026-04-27 14:05 21.90617 114.02890 18439 ft 398 kts 67°
2026-04-27 14:05 21.91693 114.05656 18952 ft 401 kts 67°
2026-04-27 14:06 21.92772 114.08436 19472 ft 404 kts 67°
2026-04-27 14:06 21.93856 114.11233 20002 ft 406 kts 67°
2026-04-27 14:06 21.94947 114.14049 20545 ft 408 kts 67°
2026-04-27 14:06 21.96042 114.16878 21095 ft 410 kts 67°
2026-04-27 14:07 21.97142 114.19721 21651 ft 412 kts 66°
2026-04-27 14:07 21.98247 114.22578 22222 ft 413 kts 66°
2026-04-27 14:07 21.99353 114.25439 22795 ft 414 kts 66°
2026-04-27 14:07 22.00462 114.28311 23394 ft 415 kts 66°
2026-04-27 14:08 22.01574 114.31190 23915 ft 416 kts 66°
2026-04-27 14:08 22.02683 114.34064 24423 ft 416 kts 66°
2026-04-27 14:08 22.03791 114.36939 24936 ft 416 kts 66°
2026-04-27 14:08 22.04901 114.39818 25448 ft 415 kts 66°
2026-04-27 14:09 22.06008 114.42691 25981 ft 415 kts 66°
2026-04-27 14:09 22.07112 114.45560 26521 ft 414 kts 66°
2026-04-27 14:09 22.08212 114.48422 27072 ft 412 kts 66°
2026-04-27 14:09 22.09308 114.51272 27637 ft 410 kts 66°
2026-04-27 14:10 22.10398 114.54108 28206 ft 408 kts 66°
2026-04-27 14:10 22.11480 114.56926 28802 ft 406 kts 67°
2026-04-27 14:10 22.12553 114.59724 29392 ft 403 kts 67°
2026-04-27 14:10 22.13630 114.62531 29749 ft 407 kts 67°
2026-04-27 14:11 22.14717 114.65367 30074 ft 411 kts 67°
2026-04-27 14:11 22.15814 114.68230 30351 ft 415 kts 66°
2026-04-27 14:11 22.16919 114.71115 30623 ft 418 kts 66°
2026-04-27 14:11 22.18033 114.74027 30916 ft 421 kts 66°
2026-04-27 14:12 22.19139 114.76917 31200 ft 424 kts 66°
2026-04-27 14:12 22.20266 114.79869 31490 ft 427 kts 66°
2026-04-27 14:12 22.21402 114.82841 31777 ft 429 kts 66°
2026-04-27 14:12 22.22544 114.85835 32067 ft 432 kts 66°
2026-04-27 14:13 22.23700 114.88864 32133 ft 441 kts 66°
2026-04-27 14:13 22.26076 114.95097 32277 ft 457 kts 66°
2026-04-27 14:14 22.28528 115.01541 32418 ft 471 kts 66°
2026-04-27 14:14 22.31052 115.08185 32519 ft 485 kts 66°
2026-04-27 14:15 22.33644 115.15016 32636 ft 497 kts 66°
2026-04-27 14:15 22.34959 115.18487 32755 ft 501 kts 66°
2026-04-27 14:15 22.36278 115.21972 32978 ft 502 kts 66°
2026-04-27 14:16 22.38926 115.28976 33070 ft 504 kts 66°
2026-04-27 14:16 22.41564 115.35962 33059 ft 500 kts 67°
2026-04-27 14:17 22.44183 115.42907 33072 ft 498 kts 67°
2026-04-27 14:17 22.46795 115.49845 33069 ft 497 kts 67°
2026-04-27 14:18 22.49399 115.56771 33068 ft 497 kts 67°
2026-04-27 14:18 22.52000 115.63700 33072 ft 497 kts 67°
2026-04-27 14:19 22.54602 115.70642 33072 ft 499 kts 67°
2026-04-27 14:19 22.57206 115.77600 33073 ft 500 kts 67°
2026-04-27 14:20 22.59816 115.84584 33074 ft 501 kts 67°
2026-04-27 14:20 22.62411 115.91539 33073 ft 502 kts 67°
2026-04-27 14:21 22.65023 115.98553 33075 ft 503 kts 67°
2026-04-27 14:21 22.67635 116.05576 33076 ft 503 kts 67°
2026-04-27 14:22 22.70314 116.12585 33065 ft 503 kts 62°
2026-04-27 14:22 22.73543 116.17770 33091 ft 499 kts 47°
2026-04-27 14:23 22.78697 116.22725 33091 ft 495 kts 34°
2026-04-27 14:23 22.84232 116.27174 33070 ft 495 kts 34°
2026-04-27 14:24 22.89721 116.31689 33073 ft 495 kts 35°
2026-04-27 14:24 22.95181 116.36247 33079 ft 495 kts 35°
2026-04-27 14:25 23.00661 116.40783 33081 ft 495 kts 35°
2026-04-27 14:25 23.06151 116.45306 33077 ft 495 kts 35°
2026-04-27 14:26 23.11637 116.49835 33083 ft 495 kts 35°
2026-04-27 14:26 23.17120 116.54374 33080 ft 495 kts 35°
2026-04-27 14:27 23.22598 116.58914 33082 ft 495 kts 35°
2026-04-27 14:27 23.28077 116.63460 33089 ft 495 kts 35°
2026-04-27 14:28 23.33523 116.67982 33087 ft 496 kts 35°
2026-04-27 14:28 23.39001 116.72537 33087 ft 496 kts 35°
2026-04-27 14:29 23.44454 116.77142 33080 ft 497 kts 39°
2026-04-27 14:29 23.49339 116.82485 33093 ft 499 kts 45°
2026-04-27 14:30 23.54066 116.88021 33079 ft 499 kts 45°
2026-04-27 14:30 23.58839 116.93518 33087 ft 499 kts 44°
2026-04-27 14:31 23.63648 116.98979 33086 ft 499 kts 44°
2026-04-27 14:31 23.68460 117.04442 33091 ft 499 kts 44°
2026-04-27 14:32 23.73236 117.09877 33104 ft 499 kts 44°
2026-04-27 14:32 23.78105 117.15288 33090 ft 498 kts 41°
2026-04-27 14:33 23.83263 117.20333 33093 ft 497 kts 39°
2026-04-27 14:33 23.88458 117.25295 33094 ft 495 kts 39°
2026-04-27 14:34 23.93607 117.30284 33104 ft 495 kts 40°
2026-04-27 14:34 23.98734 117.35304 33095 ft 495 kts 40°
2026-04-27 14:35 24.03858 117.40331 33093 ft 495 kts 40°
2026-04-27 14:35 24.08983 117.45368 33099 ft 495 kts 40°
2026-04-27 14:36 24.14104 117.50427 33086 ft 496 kts 43°
2026-04-27 14:36 24.18837 117.55945 33094 ft 498 kts 46°
2026-04-27 14:37 24.23454 117.61599 33093 ft 498 kts 46°
2026-04-27 14:37 24.28097 117.67243 33101 ft 498 kts 46°
2026-04-27 14:38 24.32769 117.72868 33089 ft 499 kts 46°
2026-04-27 14:38 24.37454 117.78501 33087 ft 500 kts 46°
2026-04-27 14:39 24.42137 117.84142 33099 ft 500 kts 46°
2026-04-27 14:39 24.46785 117.89751 33091 ft 500 kts 46°
2026-04-27 14:40 24.51455 117.95394 33093 ft 499 kts 46°
2026-04-27 14:40 24.56119 118.01035 33092 ft 498 kts 46°
2026-04-27 14:41 24.60871 118.06568 33095 ft 497 kts 44°
2026-04-27 14:41 24.65701 118.11992 33113 ft 496 kts 44°
2026-04-27 14:42 24.70490 118.17450 33098 ft 495 kts 44°
2026-04-27 14:42 24.75271 118.22902 33097 ft 495 kts 44°
2026-04-27 14:43 24.80052 118.28340 33098 ft 494 kts 44°
2026-04-27 14:43 24.84826 118.33780 33100 ft 494 kts 44°
2026-04-27 14:44 24.89597 118.39227 33096 ft 494 kts 44°
2026-04-27 14:44 24.94367 118.44681 33103 ft 494 kts 44°
2026-04-27 14:45 24.99145 118.50151 33100 ft 496 kts 44°
2026-04-27 14:45 25.03931 118.55636 33099 ft 497 kts 44°
2026-04-27 14:46 25.08698 118.61105 33102 ft 498 kts 44°
2026-04-27 14:46 25.13437 118.66691 33095 ft 499 kts 45°
2026-04-27 14:47 25.18113 118.72363 33100 ft 500 kts 45°
2026-04-27 14:47 25.22802 118.78040 33108 ft 500 kts 45°
2026-04-27 14:48 25.27508 118.83716 33103 ft 500 kts 45°
2026-04-27 14:48 25.34554 118.92223 33100 ft 500 kts 45°
2026-04-27 14:49 25.39314 118.97826 33105 ft 500 kts 44°
2026-04-27 14:49 25.44104 119.03389 33097 ft 499 kts 44°
2026-04-27 14:50 25.48882 119.08963 33101 ft 498 kts 44°
2026-04-27 14:50 25.53638 119.14539 33111 ft 498 kts 44°
2026-04-27 14:51 25.58389 119.20118 33094 ft 498 kts 44°
2026-04-27 14:51 25.62335 119.24757 33099 ft 498 kts 44°
2026-04-27 14:52 25.67848 119.31247 33093 ft 497 kts 44°
2026-04-27 14:52 25.72779 119.36567 33084 ft 491 kts 33°
2026-04-27 14:53 25.78680 119.40194 33097 ft 481 kts 16°
2026-04-27 14:53 25.85054 119.42349 33100 ft 478 kts 12°
2026-04-27 14:54 25.91441 119.44426 33090 ft 478 kts 12°
2026-04-27 14:54 25.97811 119.46561 33094 ft 478 kts 13°
2026-04-27 14:55 26.04172 119.48725 33100 ft 478 kts 13°
2026-04-27 14:55 26.10535 119.50893 33096 ft 479 kts 13°
2026-04-27 14:56 26.16903 119.53061 33106 ft 478 kts 13°
2026-04-27 14:56 26.23148 119.55540 33085 ft 484 kts 23°
2026-04-27 14:57 26.28917 119.59497 33091 ft 488 kts 30°
2026-04-27 14:57 26.34606 119.63624 33087 ft 488 kts 29°
2026-04-27 14:58 26.40330 119.67680 33098 ft 487 kts 28°
2026-04-27 14:58 26.46065 119.71709 33099 ft 487 kts 28°
2026-04-27 14:59 26.51802 119.75742 33113 ft 487 kts 29°
2026-04-27 14:59 26.57524 119.79809 33101 ft 485 kts 28°
2026-04-27 15:00 26.63217 119.83784 33090 ft 484 kts 28°
2026-04-27 15:00 26.68913 119.87780 33105 ft 483 kts 28°
2026-04-27 15:01 26.74589 119.91786 33123 ft 483 kts 28°
2026-04-27 15:01 26.80266 119.95802 33104 ft 482 kts 28°
2026-04-27 15:02 26.85937 119.99805 33107 ft 481 kts 28°
2026-04-27 15:02 26.91592 120.03807 33105 ft 480 kts 28°
2026-04-27 15:03 26.97247 120.07816 33102 ft 481 kts 28°
2026-04-27 15:03 27.02905 120.11801 33111 ft 480 kts 29°
2026-04-27 15:04 27.08508 120.15812 33106 ft 481 kts 28°
2026-04-27 15:04 27.14172 120.19842 33106 ft 482 kts 28°
2026-04-27 15:05 27.19872 120.23839 33111 ft 483 kts 28°
2026-04-27 15:05 27.25589 120.27840 33108 ft 485 kts 28°
2026-04-27 15:06 27.31326 120.31873 33109 ft 487 kts 28°
2026-04-27 15:06 27.37066 120.35914 33107 ft 487 kts 28°
2026-04-27 15:07 27.42808 120.39989 33105 ft 488 kts 29°
2026-04-27 15:07 27.48539 120.44077 33100 ft 488 kts 29°
2026-04-27 15:08 27.54263 120.48163 33097 ft 487 kts 29°
2026-04-27 15:08 27.59016 120.51558 33098 ft 486 kts 29°
2026-04-27 15:09 27.65688 120.56332 33093 ft 486 kts 28°
2026-04-27 15:09 27.70427 120.59721 33102 ft 485 kts 28°
2026-04-27 15:10 27.76494 120.62816 33102 ft 475 kts 12°
2026-04-27 15:10 27.82955 120.63916 33117 ft 468 kts
2026-04-27 15:11 27.89460 120.64467 33099 ft 468 kts
2026-04-27 15:11 27.95955 120.65042 33095 ft 468 kts
2026-04-27 15:12 28.02454 120.65660 33100 ft 468 kts
2026-04-27 15:12 28.08950 120.66295 33104 ft 468 kts
2026-04-27 15:13 28.15438 120.66930 33107 ft 468 kts
2026-04-27 15:13 28.21934 120.67564 33100 ft 469 kts
2026-04-27 15:14 28.28401 120.68195 33103 ft 470 kts
2026-04-27 15:14 28.34912 120.68834 33101 ft 470 kts 360°
2026-04-27 15:15 28.41424 120.69471 33099 ft 469 kts 360°
2026-04-27 15:15 28.47933 120.70108 33095 ft 469 kts 360°
2026-04-27 15:16 28.54433 120.70746 33093 ft 469 kts 360°
2026-04-27 15:16 28.60948 120.71388 33102 ft 470 kts 359°
2026-04-27 15:17 28.67456 120.72027 33088 ft 469 kts 359°
2026-04-27 15:17 28.73956 120.72698 33093 ft 469 kts 360°
2026-04-27 15:18 28.80460 120.73414 33088 ft 470 kts 360°
2026-04-27 15:18 28.86969 120.74114 33093 ft 470 kts 360°
2026-04-27 15:19 28.93443 120.74785 33084 ft 469 kts 359°
2026-04-27 15:19 28.99948 120.75453 33087 ft 469 kts 359°
2026-04-27 15:20 29.06458 120.76123 33097 ft 470 kts 359°
2026-04-27 15:20 29.12967 120.76799 33077 ft 469 kts 359°
2026-04-27 15:21 29.19480 120.77474 33074 ft 469 kts 359°
2026-04-27 15:21 29.25984 120.78150 33071 ft 470 kts 359°
2026-04-27 15:22 29.32495 120.78828 33072 ft 470 kts 359°
2026-04-27 15:22 29.39012 120.79507 33064 ft 469 kts 359°
2026-04-27 15:23 29.45512 120.80185 32760 ft 469 kts 359°
2026-04-27 15:23 29.48747 120.80524 32451 ft 464 kts 359°
2026-04-27 15:23 29.51950 120.80860 32144 ft 461 kts 359°
2026-04-27 15:24 29.55139 120.81193 31865 ft 459 kts 359°
2026-04-27 15:24 29.58309 120.81651 31561 ft 462 kts
2026-04-27 15:24 29.61423 120.82645 31271 ft 467 kts 14°
2026-04-27 15:24 29.64399 120.84194 30986 ft 472 kts 22°
2026-04-27 15:25 29.67252 120.85959 30717 ft 471 kts 23°
2026-04-27 15:25 29.70119 120.87780 30431 ft 470 kts 24°
2026-04-27 15:25 29.72977 120.89598 30149 ft 469 kts 23°
2026-04-27 15:25 29.75841 120.91395 29858 ft 468 kts 23°
2026-04-27 15:26 29.78709 120.93169 29566 ft 468 kts 22°
2026-04-27 15:26 29.81580 120.94934 29238 ft 467 kts 22°
2026-04-27 15:26 29.84455 120.96698 28914 ft 466 kts 22°
2026-04-27 15:26 29.87312 120.98450 28595 ft 465 kts 22°
2026-04-27 15:27 29.90161 121.00202 28287 ft 462 kts 22°
2026-04-27 15:27 29.92988 121.01946 27965 ft 460 kts 23°
2026-04-27 15:27 29.95801 121.03675 27658 ft 457 kts 23°
2026-04-27 15:27 29.98601 121.05398 27356 ft 454 kts 23°
2026-04-27 15:28 30.01378 121.07114 27057 ft 451 kts 23°
2026-04-27 15:28 30.04138 121.08823 26765 ft 449 kts 23°
2026-04-27 15:28 30.06883 121.10523 26474 ft 447 kts 23°
2026-04-27 15:28 30.09619 121.12218 26143 ft 446 kts 23°
2026-04-27 15:29 30.12363 121.13917 25663 ft 449 kts 23°
2026-04-27 15:29 30.15105 121.15618 25197 ft 445 kts 24°
2026-04-27 15:29 30.17813 121.17300 24737 ft 439 kts 24°
2026-04-27 15:29 30.20492 121.18964 24297 ft 435 kts 24°
2026-04-27 15:30 30.23145 121.20612 23852 ft 431 kts 24°
2026-04-27 15:30 30.25819 121.22114 23374 ft 422 kts 14°
2026-04-27 15:30 30.28647 121.22722 22859 ft 409 kts 360°
2026-04-27 15:30 30.31469 121.23014 22350 ft 406 kts 360°
2026-04-27 15:31 30.34275 121.23323 21845 ft 404 kts
2026-04-27 15:31 30.37028 121.23650 21353 ft 402 kts
2026-04-27 15:31 30.39802 121.23998 20860 ft 400 kts
2026-04-27 15:31 30.42559 121.24352 20398 ft 398 kts
2026-04-27 15:32 30.45301 121.24705 19916 ft 396 kts
2026-04-27 15:32 30.48031 121.25100 19457 ft 395 kts
2026-04-27 15:32 30.50751 121.25517 18998 ft 393 kts
2026-04-27 15:32 30.53457 121.25932 18547 ft 392 kts
2026-04-27 15:33 30.56154 121.26335 18083 ft 390 kts
2026-04-27 15:33 30.58844 121.26701 17564 ft 388 kts
2026-04-27 15:33 30.61527 121.27052 17061 ft 388 kts
2026-04-27 15:33 30.64195 121.27402 16549 ft 385 kts
2026-04-27 15:34 30.66845 121.27754 16068 ft 382 kts
2026-04-27 15:34 30.69479 121.28107 15590 ft 379 kts
2026-04-27 15:34 30.72085 121.28459 15109 ft 376 kts
2026-04-27 15:34 30.74676 121.28820 14641 ft 374 kts
2026-04-27 15:35 30.77250 121.29186 14177 ft 371 kts
2026-04-27 15:35 30.79805 121.29549 13714 ft 369 kts
2026-04-27 15:35 30.82345 121.29910 13196 ft 367 kts
2026-04-27 15:35 30.84872 121.30268 12682 ft 364 kts
2026-04-27 15:36 30.87381 121.30624 12182 ft 362 kts
2026-04-27 15:36 30.89873 121.30977 11695 ft 360 kts
2026-04-27 15:36 30.92350 121.31328 11205 ft 358 kts
2026-04-27 15:36 30.94810 121.31676 10723 ft 355 kts
2026-04-27 15:37 30.97257 121.32023 10244 ft 353 kts
2026-04-27 15:37 30.99654 121.32363 9777 ft 351 kts
2026-04-27 15:37 31.02069 121.32707 9262 ft 348 kts
2026-04-27 15:37 31.04464 121.33047 8753 ft 346 kts
2026-04-27 15:38 31.06843 121.33385 8248 ft 343 kts
2026-04-27 15:38 31.09206 121.33697 7762 ft 340 kts
2026-04-27 15:38 31.11510 121.33311 7248 ft 335 kts 337°
2026-04-27 15:38 31.13473 121.31911 6797 ft 329 kts 317°
2026-04-27 15:39 31.14932 121.29886 6367 ft 324 kts 303°
2026-04-27 15:39 31.16162 121.27729 6123 ft 314 kts 303°
2026-04-27 15:39 31.17343 121.25660 5832 ft 298 kts 303°
2026-04-27 15:39 31.18531 121.23684 5308 ft 290 kts 311°
2026-04-27 15:40 31.20142 121.22330 4811 ft 286 kts 338°
2026-04-27 15:40 31.22071 121.21932 4322 ft 282 kts
2026-04-27 15:40 31.24002 121.22048 3965 ft 272 kts 360°
2026-04-27 15:40 31.25851 121.22063 3711 ft 260 kts 359°
2026-04-27 15:41 31.27630 121.22061 3457 ft 253 kts 359°
2026-04-27 15:41 31.29372 121.22053 3306 ft 247 kts 359°
2026-04-27 15:41 31.31046 121.22045 3238 ft 233 kts 358°
2026-04-27 15:41 31.32599 121.22038 3115 ft 220 kts 358°
2026-04-27 15:42 31.34084 121.22032 3014 ft 206 kts 358°
2026-04-27 15:42 31.35459 121.22029 3004 ft 189 kts 358°
2026-04-27 15:42 31.36729 121.22028 2987 ft 176 kts 358°
2026-04-27 15:42 31.37964 121.22028 3021 ft 183 kts 358°
2026-04-27 15:43 31.39229 121.22336 2998 ft 193 kts 28°
2026-04-27 15:43 31.40108 121.23523 3009 ft 199 kts 66°
2026-04-27 15:43 31.40348 121.25125 3021 ft 202 kts 82°
2026-04-27 15:43 31.40459 121.26768 3014 ft 203 kts 83°
2026-04-27 15:44 31.40565 121.28419 3002 ft 204 kts 83°
2026-04-27 15:44 31.40664 121.30072 3000 ft 204 kts 85°
2026-04-27 15:44 31.40394 121.31683 2989 ft 206 kts 122°
2026-04-27 15:44 31.39276 121.32648 2999 ft 204 kts 168°
2026-04-27 15:45 31.37919 121.32676 2999 ft 185 kts 182°
2026-04-27 15:45 31.36714 121.32710 2909 ft 165 kts 179°
2026-04-27 15:45 31.35596 121.32770 2711 ft 159 kts 179°
2026-04-27 15:45 31.34493 121.32830 2511 ft 158 kts 178°
2026-04-27 15:46 31.33396 121.32890 2312 ft 157 kts 178°
2026-04-27 15:46 31.32306 121.32950 2112 ft 157 kts 178°
2026-04-27 15:46 31.31214 121.33008 1909 ft 157 kts 178°
2026-04-27 15:46 31.30127 121.33067 1704 ft 156 kts 178°
2026-04-27 15:47 31.29048 121.33126 1495 ft 154 kts 178°
2026-04-27 15:47 31.27982 121.33184 1292 ft 153 kts 177°
2026-04-27 15:47 31.26923 121.33241 1095 ft 152 kts 177°
2026-04-27 15:47 31.25883 121.33298 897 ft 151 kts 178°
2026-04-27 15:48 31.24849 121.33354 726 ft 148 kts 178°
2026-04-27 15:48 31.23823 121.33426 557 ft 148 kts 177°
2026-04-27 15:48 31.22791 121.33486 359 ft 149 kts 178°
2026-04-27 15:49 31.20744 121.33578 23 ft 140 kts 178°
2026-04-27 15:49 31.19889 121.33625 18 ft 102 kts 177°
2026-04-27 15:49 31.19327 121.33654 19 ft 60 kts 177°
2026-04-27 15:49 31.19068 121.33630 18 ft 16 kts 200°
2026-04-27 15:50 31.18966 121.33576 19 ft 17 kts 206°
2026-04-27 15:50 31.18864 121.33519 18 ft 16 kts 205°
2026-04-27 15:50 31.18759 121.33495 18 ft 15 kts 178°
2026-04-27 15:50 31.18656 121.33503 18 ft 15 kts 176°
2026-04-27 15:51 31.18556 121.33509 18 ft 14 kts 178°
2026-04-27 15:51 31.18458 121.33512 18 ft 15 kts 177°
2026-04-27 15:51 31.18333 121.33518 18 ft 23 kts 176°
2026-04-27 15:51 31.18148 121.33529 18 ft 28 kts 177°
2026-04-27 15:52 31.17957 121.33538 18 ft 27 kts 177°
2026-04-27 15:52 31.17804 121.33541 18 ft 17 kts 196°
2026-04-27 15:52 31.17763 121.33425 18 ft 17 kts 268°
2026-04-27 15:52 31.17759 121.33294 18 ft 16 kts 268°
2026-04-27 15:53 31.17782 121.33175 18 ft 15 kts 316°
2026-04-27 15:53 31.17868 121.33107 18 ft 15 kts 324°
2026-04-27 15:53 31.17933 121.33057 19 ft 20 kts 336°
2026-04-27 15:53 31.18099 121.33051 18 ft 28 kts
2026-04-27 15:54 31.18311 121.33050 18 ft 32 kts 360°
2026-04-27 15:54 31.18528 121.33041 18 ft 30 kts 357°
2026-04-27 15:54 31.18732 121.33032 18 ft 28 kts 357°
2026-04-27 15:54 31.18924 121.33020 18 ft 27 kts 357°
2026-04-27 15:55 31.19103 121.33009 18 ft 25 kts 357°
2026-04-27 15:55 31.19168 121.32867 18 ft 23 kts 267°
2026-04-27 15:55 31.19161 121.32682 18 ft 22 kts 266°
2026-04-27 15:55 31.19232 121.32568 18 ft 12 kts 345°
2026-04-27 15:56 31.19287 121.32552 18 ft 12 kts 345°
2026-04-27 15:56 31.19317 121.32542 18 ft 0 kts 345°
2026-04-27 15:57 31.19317 121.32543 18 ft 0 kts 345°